Weather History for Rolla, MO

Change the Weather History Date:

Tuesday, June 25, 2013

  Actual Average Record
Temperature  
Mean Temperature 80 °F 75 °F  
Max Temperature 88 °F 85 °F 100 °F (1952)
Min Temperature 71 °F 65 °F 49 °F (1958)
Degree Days  
Heating Degree Days 0 0  
Month to date heating degree days 17 12  
Since 1 June heating degree days 17 12  
Since 1 July heating degree days 4957 4846  
Cooling Degree Days 15 10  
Month to date cooling degree days 163 182  
Year to date cooling degree days 270 289  
Since 1 June cooling degree days 163 182  
Growing Degree Days 30 (Base 50)    
Moisture  
Dew Point 70 °F    
Average Humidity 75    
Maximum Humidity 87    
Minimum Humidity 63    
Precipitation  
Precipitation 0.00 in 0.13 in 2.82 in (1993)
Month to date precipitation 3.20 3.95  
Year to date precipitation 24.50 20.76  
Sea Level Pressure  
Sea Level Pressure 29.89 in    
Wind  
Wind Speed 10 mph (SSW)    
Max Wind Speed 22 mph    
Max Gust Speed 30 mph    
Visibility 10 miles    
Events      
T = Trace of Precipitation, MM = Missing Value Source: NWS Daily Summary

Daily Weather History Graph

Daily Weather History Graph

Search for Another Location

Airport:

Trip Planner

Search our weather history database for the weather conditions in past years. The results will help you decide how hot, cold, wet, or windy it might be!

Date:

Astronomy

Jun. 25, 2013 Rise Set
Actual Time 5:45 AM CDT 8:34 PM CDT
Civil Twilight 5:13 AM CDT 9:05 PM CDT
Nautical Twilight 4:34 AM CDT 9:45 PM CDT
Astronomical Twilight 3:49 AM CDT 10:30 PM CDT
Moon 10:22 PM CDT (6/25) 8:23 AM CDT (6/25)
Length of Visible Light 15h 51m
Length of Day
14h 48m
Waning Gibbous, 92% of the Moon is Illuminated
Jun 25
Waning Gibbous
Jun 29
Last Quarter
Jul 8
New
Jul 15
First Quarter
Jul 22
Full

Hourly Weather History & Observations

Time (CDT) Temp. Heat Index Dew Point Humidity Pressure Visibility Wind Dir Wind Speed Gust Speed Precip Events Conditions
12:53 AM 78.1 °F - 66.9 °F 68% 29.93 in 10.0 mi SSW 11.5 mph - N/A   Clear
1:53 AM 75.0 °F - 66.9 °F 76% 29.93 in 10.0 mi SSW 6.9 mph - N/A   Clear
2:53 AM 71.1 °F - 66.9 °F 87% 29.93 in 10.0 mi South 5.8 mph - N/A   Clear
3:53 AM 73.0 °F - 66.9 °F 81% 29.91 in 10.0 mi South 5.8 mph - N/A   Clear
4:53 AM 73.0 °F - 68.0 °F 84% 29.91 in 10.0 mi South 9.2 mph - N/A   Clear
5:53 AM 73.0 °F - 68.0 °F 84% 29.91 in 10.0 mi South 10.4 mph - N/A   Clear
6:53 AM 73.9 °F - 69.1 °F 85% 29.92 in 10.0 mi South 9.2 mph - N/A   Clear
7:53 AM 77.0 °F - 70.0 °F 79% 29.92 in 10.0 mi South 13.8 mph - N/A   Clear
8:53 AM 80.1 °F 83.6 °F 71.1 °F 74% 29.94 in 10.0 mi SW 10.4 mph - N/A   Clear
9:53 AM 82.0 °F 86.3 °F 71.1 °F 69% 29.93 in 10.0 mi SSW 13.8 mph - N/A   Clear
10:53 AM 84.0 °F 89.6 °F 72.0 °F 67% 29.94 in 10.0 mi SW 12.7 mph 19.6 mph N/A   Scattered Clouds
11:53 AM 84.9 °F 91.4 °F 73.0 °F 67% 29.94 in 10.0 mi South 12.7 mph - N/A   Scattered Clouds
12:53 PM 87.1 °F 94.5 °F 73.0 °F 63% 29.95 in 10.0 mi SW 12.7 mph - N/A   Mostly Cloudy
1:53 PM 87.1 °F 94.5 °F 73.0 °F 63% 29.92 in 10.0 mi SW 10.4 mph - N/A   Clear
2:53 PM 88.0 °F 95.6 °F 73.0 °F 61% 29.91 in 10.0 mi South 11.5 mph - N/A   Clear
3:53 PM 87.1 °F 94.5 °F 73.0 °F 63% 29.87 in 10.0 mi South 10.4 mph - N/A   Clear
4:53 PM 86.0 °F 93.0 °F 73.0 °F 65% 29.78 in 10.0 mi South 19.6 mph 27.6 mph N/A   Clear
5:53 PM 84.0 °F 89.6 °F 72.0 °F 67% 29.81 in 10.0 mi South 10.4 mph 21.9 mph N/A   Clear
6:53 PM 84.0 °F 90.2 °F 73.0 °F 69% 29.80 in 10.0 mi South 11.5 mph - N/A   Clear
7:53 PM 82.0 °F 86.7 °F 72.0 °F 71% 29.81 in 10.0 mi South 8.1 mph - N/A   Clear
8:53 PM 80.1 °F 83.2 °F 70.0 °F 71% 29.81 in 10.0 mi South 9.2 mph - N/A   Clear
9:53 PM 78.1 °F - 69.1 °F 74% 29.83 in 10.0 mi South 8.1 mph - N/A   Clear
10:53 PM 77.0 °F - 69.1 °F 76% 29.85 in 10.0 mi South 6.9 mph - N/A   Clear
11:53 PM 75.0 °F - 69.1 °F 82% 29.85 in 10.0 mi South 6.9 mph - N/A   Clear